• Join FlightAware (Why Join?)
  • Login
  • US Flag GB Flag 
17:38 EDT


 

Airport Tracker/Info


-or-


 

Live Flight TrackerFlight Track Log ✈ N140SL ✈ 11-Jun-2013 ✈ KVNY - KMCC

Flight Track Log - Related Links

Times and Time Zones

All times are in EDT time to prevent confusion due to time zone crossing. See the N140SL flight status page for this flight to view local times or setup timezone preferences in your user account.

Time Position Orientation Groundspeed Altitude Reporting Facility
EDT Latitude Longitude Course Direction KTS MPH feet Rate Location/Type
15:22 34.1500 -118.5167 333° Northwest 197 227 2,300  Level Southern California TRACON
15:23 34.1833 -118.5833 301° West 210 242 4,100 1,500 Climbing Southern California TRACON
15:24 34.1908 -118.6036 294° West 206 237 4,700 1,560 Climbing Los Angeles Center
15:25 34.2333 -118.6725 307° West 210 242 6,700 1,800 Climbing Los Angeles Center
15:26 34.2689 -118.7322 306° West 220 253 8,500 840 Climbing Los Angeles Center
15:27 34.3111 -118.8092 304° West 274 315 8,500  Level Los Angeles Center
15:28 34.5750 -118.7147 333° Northwest  Level Estimated
15:28 34.3075 -118.9092 268° West 277 319 8,500  Level Los Angeles Center
15:29 34.3808 -118.9872 319° Northwest 290 334 8,500 960 Level Los Angeles Center
15:30 34.4447 -119.0369 327° Northwest 269 310 10,500 2,220 Climbing Los Angeles Center
15:31 34.4975 -119.0789 327° Northwest 227 261 13,200 2,340 Climbing Los Angeles Center
15:32 34.5514 -119.1214 327° Northwest 237 273 15,400 1,560 Climbing Los Angeles Center
15:33 34.6092 -119.1656 328° Northwest 240 276 16,500 480 Climbing Los Angeles Center
15:34 34.6850 -119.2239 328° Northwest 313 360 16,500  Level Los Angeles Center
15:35 34.7794 -119.2961 328° Northwest 332 382 16,500  Level Los Angeles Center
15:36 34.8594 -119.3586 327° Northwest 340 391 16,500  Level Los Angeles Center
15:37 34.9394 -119.4206 328° Northwest 342 394 16,500  Level Los Angeles Center
15:38 35.0186 -119.4833 327° Northwest 342 394 16,500  Level Los Angeles Center
15:39 35.0989 -119.5456 328° Northwest 342 394 16,500 -60 Level Los Angeles Center
15:41 35.1789 -119.6081 327° Northwest 343 395 16,400 -60 Descending Los Angeles Center
15:42 35.2742 -119.6833 327° Northwest 343 395 16,400  Level Los Angeles Center
15:43 35.3536 -119.7458 327° Northwest 341 392 16,500  Climbing Los Angeles Center
15:43 35.3842 -119.7697 327° Northwest 338 389 16,400 -120 Descending Oakland Center
15:44 35.4642 -119.8322 328° Northwest 342 394 16,400  Level Oakland Center
15:45 35.5428 -119.8956 327° Northwest 341 392 16,400  Level Oakland Center
15:46 35.5906 -119.9350 326° Northwest 339 390 16,400  Level Los Angeles Center
15:47 35.6861 -120.0103 327° Northwest 341 392 16,400  Level Los Angeles Center
15:47 35.7181 -120.0325 331° Northwest 343 395 16,400  Level Oakland Center
15:48 35.8000 -120.0911 330° Northwest 344 396 16,400  Level Oakland Center
15:49 35.8808 -120.1528 328° Northwest 343 395 16,400  Level Oakland Center
15:50 35.9631 -120.2131 329° Northwest 345 397 16,400  Level Oakland Center
15:51 36.0467 -120.2736 330° Northwest 349 402 16,400  Level Oakland Center
15:52 36.1289 -120.3358 329° Northwest 348 400 16,400  Level Oakland Center
15:53 36.2108 -120.3956 330° Northwest 344 396 16,400  Level Oakland Center
15:54 36.2928 -120.4592 328° Northwest 346 398 16,400  Level Oakland Center
15:55 36.3922 -120.5358 328° Northwest 352 405 16,400  Level Oakland Center
15:56 36.4750 -120.5967 329° Northwest 348 400 16,400  Level Oakland Center
15:57 36.5561 -120.6581 329° Northwest 343 395 16,500  Climbing Oakland Center
15:58 36.6372 -120.7206 328° Northwest 343 395 16,500 -60 Level Oakland Center
15:59 36.7206 -120.7808 330° Northwest 346 398 16,400  Descending Oakland Center
16:00 36.8236 -120.8128 346° North 349 402 16,500  Climbing Oakland Center
16:01 36.9175 -120.8400 347° North 349 402 16,500  Level Oakland Center
16:02 37.0114 -120.8686 346° North 345 397 16,500  Level Oakland Center
16:03 37.0500 -120.8833 343° North 347 399 16,500  Level Northern Cal TRACON
16:03 37.1058 -120.8975 349° North 348 400 16,500  Level Oakland Center
16:04 37.1986 -120.9267 346° North 345 397 16,500  Level Oakland Center
16:06 37.2919 -120.9586 345° North 348 400 16,500  Level Oakland Center
16:07 37.3850 -120.9886 346° North 346 398 16,500  Level Oakland Center
16:07 37.4167 -121.0000 344° North 344 396 16,500 -660 Level Northern Cal TRACON
16:08 37.5167 -121.0333 345° North 338 389 15,700 -1,020 Descending Northern Cal TRACON
16:09 37.6000 -121.0667 342° North 337 388 14,500 -600 Descending Northern Cal TRACON
16:10 37.7000 -121.1000 345° North 333 383 14,500  Level Northern Cal TRACON
16:11 37.7833 -121.1167 351° North 330 380 14,500  Level Northern Cal TRACON
16:12 37.8667 -121.1500 342° North 356 410 14,500  Level Northern Cal TRACON
16:13 37.9667 -121.1500 360° North 355 409 14,500  Level Northern Cal TRACON
16:14 38.0667 -121.1667 353° North 342 394 14,500 -300 Level Northern Cal TRACON
16:15 38.1667 -121.1667 360° North 340 391 13,900 -1,440 Descending Northern Cal TRACON
16:16 38.2500 -121.1833 351° North 291 335 11,700 -2,160 Descending Northern Cal TRACON
16:17 38.3167 -121.2333 330° Northwest 275 316 9,600 -2,100 Descending Northern Cal TRACON
16:18 38.3833 -121.2667 339° North 255 293 7,500 -2,100 Descending Northern Cal TRACON
16:19 38.4333 -121.3000 332° Northwest 250 288 5,700 -2,100 Descending Northern Cal TRACON
16:20 38.4833 -121.3500 322° Northwest 242 278 3,600 -1,380 Descending Northern Cal TRACON
16:21 38.5500 -121.3833 339° North 228 262 3,000 -600 Descending Northern Cal TRACON